CZ-6A DEB, 61393

Orbit data source: Space-Track

CZ-6A DEB, 61393 is space debris in LEO originally from a launch on Tue, 06 Aug 2024 UTC launched from the Taiyaun Space Center, China (TSC). Debris objects in space refer to the collection of defunct objects orbiting the Earth. Examples of debris include non-operational satellites, rocket bodies, and fragments generated from explosions, collisions, or faulty payload assembly.

Loading next visibility...
Identifier
61393, 2024-140XJ
Orbit
LEO
Country
Flag of CNCN / PRC
Related business
Manufacturer
SAST
Mission
Spacecraft
Bus & Motor
Unknown
Mass
Unknown
Launch date (UTC)
2024-08-06 (1 year ago)
Launch vehicle
Unknown
Launch site
Taiyaun Space Center, China (TSC)
Object type
Payload
Rocket body
Debris
Shape & HBR
Unknown shape, 0.1 m
Radar Cross Section
Small (<0.1 m²)

Expand to show TLE details & history
Last TLE update: 3 days ago

TLE from 3 days ago
0 CZ-6A DEB
1 61393U 24140XJ  25311.42051734  .00003719  00000-0  19053-2 0  9991
2 61393  88.9952 300.2473 0084775 215.8664 143.6813 14.13450166 60370
Epoch: 2025-11-07T10:05Z
TLE epoch observation values (Epoch: 2025-11-07T10:05:32.698Z)
Latitude
-0.00007°
Longitude
101.99632°
Altitude
900.18 km
Speed
7.377 km/s
True Right ascension
20h 00m 59s
True Declination
0° 00' 00"
Sunlit
Object was in daylight at epoch
Visualization orbit readout
Latitude
Unknown
Longitude
Unknown
Altitude
Unknown
Speed
Unknown
Apparent Right ascension
Unknown
Apparent Declination
Unknown
Sunlit
N/A
Visualization observer readout
Local Sidereal Time
19:53:46
Azimuth
Unknown
Elevation
Unknown
Doppler factor
Unknown
Orbital elements
Apogee altitude
905.78 km
Perigee altitude
783.319 km
Semi-major axis
7,222.687 km
Eccentricity
0.00848
Inclination
88.9952°
RAAN
300.2473°
Arg. of periapsis
215.8664°
True anomaly
144.25178°
Mean anomaly
143.6813°
Eccentric anomaly
143.96703°
Mean motion
3.53586 °/min
Orbital period
101.81 mins
BSTAR
0.0019053
Loading maneuver chart data...
Computing Atmospheric mass density...

Documentation

Showing up to 5 results
|